| time (UTC) | temp C | wind direction | speed KPH | gust KPH | rain 1hr cm | rain 24hr cm | rain mn cm | humidity % | barometer mb |
| 20260902231630 | 28 | 241 | 3.2 | 6.4 | 0.00 | 0.00 | 0.00 | 76 | 992.3 |
| 20260902230130 | 28 | 290 | 6.4 | 12.9 | 0.00 | 0.00 | 0.00 | 75 | 992.4 |
| 20260902224629 | 29 | 224 | 3.2 | 9.7 | 0.00 | 0.00 | 0.00 | 73 | 992.5 |
| 20260902223126 | 30 | 266 | 6.4 | 12.9 | 0.00 | 0.00 | 0.00 | 71 | 992.4 |
| 20260902221624 | 30 | 233 | 4.8 | 12.9 | 0.00 | 0.00 | 0.00 | 70 | 992.6 |
| 20260902220121 | 31 | 287 | 3.2 | 9.7 | 0.00 | 0.00 | 0.00 | 68 | 992.5 |
| 20260902214619 | 31 | 223 | 4.8 | 14.5 | 0.00 | 0.00 | 0.00 | 65 | 992.5 |
| 20260902213118 | 31 | 211 | 9.7 | 14.5 | 0.00 | 0.00 | 0.00 | 63 | 992.2 |
| 20260902211618 | 31 | 173 | 9.7 | 14.5 | 0.00 | 0.00 | 0.00 | 64 | 992.5 |
| 20260902210114 | 31 | 219 | 6.4 | 9.7 | 0.00 | 0.00 | 0.00 | 64 | 992.5 |
| 20260902204614 | 32 | 247 | 4.8 | 12.9 | 0.00 | 0.00 | 0.00 | 61 | 992.7 |
| 20260902203110 | 31 | 268 | 11.3 | 14.5 | 0.00 | 0.00 | 0.00 | 61 | 992.6 |
| 20260902201609 | 32 | 237 | 6.4 | 17.7 | 0.00 | 0.00 | 0.00 | 60 | 992.9 |
| 20260902200106 | 33 | 215 | 4.8 | 11.3 | 0.00 | 0.00 | 0.00 | 57 | 992.6 |
| 20260902194605 | 33 | 259 | 8.0 | 14.5 | 0.00 | 0.00 | 0.00 | 57 | 992.5 |
| 20260902193102 | 32 | 196 | 4.8 | 9.7 | 0.00 | 0.00 | 0.00 | 63 | 992.9 |
| 20260902191601 | 33 | 267 | 6.4 | 9.7 | 0.00 | 0.00 | 0.00 | 60 | 993.0 |
| 20260902190058 | 32 | 206 | 8.0 | 12.9 | 0.00 | 0.00 | 0.00 | 62 | 993.3 |
| 20260902184556 | 32 | 204 | 6.4 | 12.9 | 0.00 | 0.00 | 0.00 | 63 | 992.9 |
| 20260902183056 | 32 | 219 | 8.0 | 16.1 | 0.00 | 0.00 | 0.00 | 63 | 992.8 |
| 20260902181556 | 32 | 203 | 6.4 | 12.9 | 0.00 | 0.00 | 0.00 | 65 | 993.1 |
| 20260902180051 | 32 | 270 | 0.0 | 9.7 | 0.00 | 0.00 | 0.00 | 67 | 993.5 |
| 20260902174548 | 32 | 192 | 3.2 | 11.3 | 0.00 | 0.00 | 0.00 | 67 | 993.6 |
| 20260902173044 | 32 | 154 | 3.2 | 9.7 | 0.00 | 0.00 | 0.00 | 68 | 993.7 |
| 20260902171541 | 31 | 196 | 4.8 | 9.7 | 0.00 | 0.00 | 0.00 | 71 | 994.1 |
| 20260902170039 | 32 | 206 | 6.4 | 6.4 | 0.00 | 0.00 | 0.00 | 68 | 994.1 |
| 20260902164534 | 31 | 213 | 3.2 | 4.8 | 0.00 | 0.00 | 0.00 | 72 | 994.1 |
| 20260902163033 | 30 | 229 | 3.2 | 6.4 | 0.00 | 0.00 | 0.00 | 75 | 994.2 |
| 20260902161529 | 30 | 91 | 6.4 | 11.3 | 0.00 | 0.00 | 0.00 | 76 | 994.0 |
| 20260902160027 | 30 | 165 | 3.2 | 4.8 | 0.00 | 0.00 | 0.00 | 78 | 994.1 |
| 20260902154526 | 30 | 122 | 3.2 | 4.8 | 0.00 | 0.00 | 0.00 | 77 | 994.0 |
| 20260902153027 | 28 | 155 | 3.2 | 4.8 | 0.00 | 0.00 | 0.00 | 77 | 994.3 |
| 20260902151526 | 30 | 142 | 3.2 | 9.7 | 0.00 | 0.00 | 0.00 | 76 | 994.1 |
| 20260902150021 | 28 | 178 | 1.6 | 1.6 | 0.00 | 0.00 | 0.00 | 79 | 994.2 |
| 20260902144519 | 28 | 256 | 4.8 | 9.7 | 0.00 | 0.00 | 0.00 | 80 | 994.5 |
| 20260902143016 | 27 | 198 | 3.2 | 4.8 | 0.00 | 0.00 | 0.00 | 81 | 994.3 |
| 20260902141512 | 27 | 231 | 6.4 | 9.7 | 0.00 | 0.00 | 0.00 | 84 | 994.5 |
| 20260902140009 | 27 | 35 | 3.2 | 4.8 | 0.00 | 0.00 | 0.00 | 86 | 994.7 |
| 20260902134505 | 26 | 176 | 3.2 | 11.3 | 0.00 | 0.00 | 0.00 | 89 | 994.9 |
| 20260902133001 | 27 | 274 | 4.8 | 9.7 | 0.00 | 0.00 | 0.00 | 86 | 994.6 |
| 20260902131458 | 26 | 172 | 1.6 | 4.8 | 0.00 | 0.00 | 0.00 | 87 | 993.7 |
| 20260902125954 | 25 | 120 | 3.2 | 3.2 | 0.00 | 0.00 | 0.00 | 92 | 994.0 |
| 20260902124454 | 24 | 196 | 0.0 | 3.2 | 0.00 | 0.00 | 0.00 | 93 | 994.1 |
| 20260902122949 | 23 | 156 | 0.0 | 0.0 | 0.00 | 0.00 | 0.00 | 95 | 994.5 |
| 20260902121447 | 23 | 173 | 1.6 | 1.6 | 0.00 | 0.00 | 0.00 | 97 | 994.2 |
| 20260902115943 | 22 | 172 | 0.0 | 0.0 | 0.00 | 0.00 | 0.00 | 98 | 994.6 |
| 20260902114443 | 22 | 180 | 0.0 | 0.0 | 0.00 | 0.00 | 0.00 | 98 | 994.6 |
| 20260902112939 | 22 | 210 | 0.0 | 1.6 | 0.00 | 0.00 | 0.00 | 98 | 994.6 |
| 20260902111440 | 22 | 183 | 0.0 | 0.0 | 0.00 | 0.00 | 0.00 | 97 | 994.6 |
| 20260902105937 | 23 | 183 | 0.0 | 0.0 | 0.00 | 0.00 | 0.00 | 96 | 994.2 |
| 20260902104434 | 23 | 212 | 1.6 | 1.6 | 0.00 | 0.00 | 0.00 | 95 | 994.3 |
| 20260902102930 | 23 | 203 | 0.0 | 1.6 | 0.00 | 0.00 | 0.00 | 95 | 994.0 |
| 20260902101429 | 23 | 201 | 0.0 | 1.6 | 0.00 | 0.00 | 0.00 | 94 | 994.2 |
| 20260902095924 | 23 | 197 | 0.0 | 3.2 | 0.00 | 0.00 | 0.00 | 95 | 994.3 |
| 20260902094420 | 23 | 219 | 0.0 | 3.2 | 0.00 | 0.00 | 0.00 | 94 | 994.1 |
| 20260902092920 | 24 | 201 | 0.0 | 0.0 | 0.00 | 0.00 | 0.00 | 94 | 994.3 |
| 20260902091417 | 24 | 237 | 0.0 | 0.0 | 0.00 | 0.00 | 0.00 | 94 | 994.5 |
| 20260902085912 | 24 | 189 | 0.0 | 3.2 | 0.00 | 0.00 | 0.00 | 92 | 994.4 |
| 20260902084411 | 25 | 192 | 1.6 | 3.2 | 0.00 | 0.00 | 0.00 | 92 | 993.8 |
| 20260902082907 | 25 | 197 | 1.6 | 1.6 | 0.00 | 0.00 | 0.00 | 91 | 993.7 |
| 20260902081407 | 25 | 211 | 3.2 | 9.7 | 0.00 | 0.00 | 0.00 | 91 | 993.7 |
| 20260902075903 | 25 | 234 | 3.2 | 6.4 | 0.00 | 0.00 | 0.00 | 90 | 993.5 |
| 20260902074402 | 25 | 209 | 1.6 | 6.4 | 0.00 | 0.00 | 0.00 | 90 | 993.8 |
| 20260902072900 | 25 | 249 | 1.6 | 4.8 | 0.00 | 0.00 | 0.00 | 90 | 993.8 |
| 20260902071358 | 25 | 174 | 0.0 | 1.6 | 0.00 | 0.00 | 0.00 | 91 | 993.8 |
| 20260902065854 | 25 | 219 | 3.2 | 3.2 | 0.00 | 0.00 | 0.00 | 92 | 993.9 |
| 20260902064353 | 25 | 213 | 1.6 | 3.2 | 0.00 | 0.00 | 0.00 | 93 | 993.7 |
| 20260902062848 | 25 | 224 | 0.0 | 1.6 | 0.00 | 0.00 | 0.00 | 95 | 993.8 |
| 20260902061348 | 25 | 234 | 0.0 | 0.0 | 0.00 | 0.00 | 0.00 | 96 | 993.7 |
| 20260902055847 | 25 | 195 | 0.0 | 0.0 | 0.00 | 0.00 | 0.00 | 96 | 993.7 |
| 20260902054346 | 24 | 186 | 0.0 | 0.0 | 0.00 | 0.00 | 0.00 | 98 | 993.5 |
| 20260902052841 | 24 | 197 | 0.0 | 0.0 | 0.00 | 0.00 | 0.00 | 98 | 993.6 |
| 20260902051337 | 25 | 178 | 0.0 | 0.0 | 0.00 | 0.00 | 0.00 | 97 | 993.6 |
| 20260902045838 | 25 | 192 | 0.0 | 0.0 | 0.00 | 0.00 | 0.00 | 97 | 993.8 |
| 20260902044337 | 25 | 172 | 0.0 | 4.8 | 0.00 | 0.00 | 0.00 | 96 | 993.9 |
| 20260902042832 | 25 | 158 | 3.2 | 4.8 | 0.00 | 0.00 | 0.00 | 96 | 993.7 |
| 20260902041327 | 24 | 166 | 0.0 | 0.0 | 0.00 | 0.00 | 0.00 | 95 | 993.8 |
| 20260902035826 | 23 | 232 | 4.8 | 4.8 | 0.00 | 0.03 | 0.03 | 97 | 993.7 |
| 20260902034322 | 23 | 212 | 1.6 | 1.6 | 0.00 | 0.00 | 0.00 | 97 | 994.1 |
| 20260902032820 | 23 | 182 | 0.0 | 0.0 | 0.00 | 0.00 | 0.00 | 98 | 994.0 |
| 20260902031317 | 23 | 142 | 0.0 | 0.0 | 0.00 | 0.00 | 0.00 | 98 | 993.8 |
| 20260902025812 | 23 | 128 | 0.0 | 0.0 | 0.00 | 0.00 | 0.00 | 98 | 993.9 |
| 20260902024309 | 23 | 166 | 0.0 | 0.0 | 0.00 | 0.00 | 0.00 | 97 | 994.0 |
| 20260902022805 | 23 | 171 | 0.0 | 0.0 | 0.00 | 0.00 | 0.00 | 97 | 994.1 |
| 20260902021302 | 23 | 180 | 0.0 | 0.0 | 0.00 | 0.00 | 0.00 | 97 | 994.1 |
| 20260902015801 | 23 | 182 | 0.0 | 1.6 | 0.00 | 0.00 | 0.00 | 97 | 994.0 |
| 20260902014302 | 23 | 174 | 0.0 | 0.0 | 0.00 | 0.00 | 0.00 | 96 | 993.9 |
| 20260902012757 | 23 | 172 | 0.0 | 0.0 | 0.00 | 0.00 | 0.00 | 96 | 993.9 |
| 20260902011254 | 23 | 191 | 0.0 | 0.0 | 0.00 | 0.00 | 0.00 | 96 | 993.7 |
| 20260902005753 | 23 | 170 | 0.0 | 0.0 | 0.00 | 0.00 | 0.00 | 95 | 993.4 |
| 20260902004250 | 23 | 159 | 0.0 | 0.0 | 0.00 | 0.00 | 0.00 | 95 | 993.1 |
| 20260902002748 | 24 | 186 | 0.0 | 1.6 | 0.00 | 0.00 | 0.00 | 94 | 993.2 |
| 20260902001243 | 24 | 205 | 1.6 | 1.6 | 0.00 | 0.00 | 0.00 | 92 | 993.5 |
| 20260901235738 | 24 | 221 | 0.0 | 1.6 | 0.00 | 0.00 | 0.00 | 91 | 994.1 |
| 20260901234233 | 25 | 242 | 1.6 | 4.8 | 0.00 | 0.00 | 0.00 | 90 | 994.1 |